H1 CPF 2 NER 2025 8 7 9 219 01 glonass142 H2 2001801 9142 45358 2025 8 7 0 0 0 2025 8 10 23 45 0 900 1 1 0 0 0 1 H9 10 0 60894 0.00000 0 -19644324.510 4813714.496 15540213.165 10 0 60894 900.00000 0 -21407413.218 4747020.224 13023640.370 10 0 60894 1800.00000 0 -22845666.257 4818774.479 10253952.035 10 0 60894 2700.00000 0 -23921960.222 4982716.682 7284905.254 10 0 60894 3600.00000 0 -24611096.790 5187092.884 4174177.646 10 0 60894 4500.00000 0 -24900761.419 5377071.101 982245.451 10 0 60894 5400.00000 0 -24791958.840 5497296.438 -2228796.867 10 0 60894 6300.00000 0 -24298906.234 5494476.855 -5396451.945 10 0 60894 7200.00000 0 -23448388.142 5319888.708 -8459045.181 10 0 60894 8100.00000 0 -22278600.031 4931694.398 -11356935.747 10 0 60894 9000.00000 0 -20837529.375 4296972.253 -14033688.204 10 0 60894 9900.00000 0 -19180942.841 3393371.064 -16437180.744 10 0 60894 10800.00000 0 -17370064.970 2210317.680 -18520627.559 10 0 60894 11700.00000 0 -15469046.729 749725.231 -20243494.790 10 0 60894 12600.00000 0 -13542331.084 -973829.112 -21572291.814 10 0 60894 13500.00000 0 -11652026.796 -2933465.325 -22481222.465 10 0 60894 14400.00000 0 -9855400.887 -5090886.263 -22952683.746 10 0 60894 15300.00000 0 -8202594.901 -7397751.311 -22977602.753 10 0 60894 16200.00000 0 -6734660.152 -9797480.840 -22555605.851 10 0 60894 17100.00000 0 -5481993.410 -12227416.273 -21695017.466 10 0 60894 18000.00000 0 -4463237.304 -14621245.707 -20412689.142 10 0 60894 18900.00000 0 -3684689.993 -16911594.045 -18733662.785 10 0 60894 19800.00000 0 -3140247.054 -19032669.775 -16690675.165 10 0 60894 20700.00000 0 -2811876.166 -20922858.308 -14323513.747 10 0 60894 21600.00000 0 -2670602.770 -22527154.061 -11678236.766 10 0 60894 22500.00000 0 -2677963.461 -23799330.325 -8806272.986 10 0 60894 23400.00000 0 -2787864.313 -24703757.163 -5763419.007 10 0 60894 24300.00000 0 -2948764.562 -25216792.118 -2608753.804 10 0 60894 25200.00000 0 -3106092.408 -25327686.480 596508.253 10 0 60894 26100.00000 0 -3204790.326 -25038970.463 3790203.414 10 0 60894 27000.00000 0 -3191881.956 -24366302.044 6910420.618 10 0 60894 27900.00000 0 -3018952.035 -23337786.848 9896696.390 10 0 60894 28800.00000 0 -2644434.738 -21992798.308 12691179.698 10 0 60894 29700.00000 0 -2035613.940 -20380347.910 15239744.705 10 0 60894 30600.00000 0 -1170251.129 -18557073.855 17493030.556 10 0 60894 31500.00000 0 -37772.300 -16584932.039 19407388.879 10 0 60894 32400.00000 0 1360036.478 -14528685.225 20945721.571 10 0 60894 33300.00000 0 3008854.834 -12453294.345 22078193.585 10 0 60894 34200.00000 0 4882183.663 -10421319.664 22782807.658 10 0 60894 35100.00000 0 6942217.195 -8490438.958 23045830.489 10 0 60894 36000.00000 0 9141197.005 -6711184.879 22862062.350 10 0 60894 36900.00000 0 11423193.521 -5124994.791 22234944.825 10 0 60894 37800.00000 0 13726242.823 -3762653.419 21176504.141 10 0 60894 38700.00000 0 15984751.701 -2643192.683 19707130.311 10 0 60894 39600.00000 0 18132072.361 -1773294.312 17855195.292 10 0 60894 40500.00000 0 20103140.761 -1147220.074 15656516.249 10 0 60894 41400.00000 0 21837069.234 -747272.636 13153672.965 10 0 60894 42300.00000 0 23279585.377 -544767.848 10395191.436 10 0 60894 43200.00000 0 24385214.946 -501477.641 7434608.474 10 0 60894 44100.00000 0 25119116.685 -571482.758 4329434.832 10 0 60894 45000.00000 0 25458491.193 -703356.808 1140036.748 10 0 60894 45900.00000 0 25393503.590 -842588.767 -2071542.109 10 0 60894 46800.00000 0 24927680.154 -934140.520 -5242794.862 10 0 60894 47700.00000 0 24077761.357 -925029.921 -8311977.181 10 0 60894 48600.00000 0 22873016.862 -766828.500 -11219319.650 10 0 60894 49500.00000 0 21354051.048 -417966.398 -13908201.951 10 0 60894 50400.00000 0 19571149.356 154254.697 -16326264.821 10 0 60894 51300.00000 0 17582235.349 972027.398 -18426437.221 10 0 60894 52200.00000 0 15450524.844 2045853.761 -20167858.019 10 0 60894 53100.00000 0 13241976.217 3373860.969 -21516673.844 10 0 60894 54000.00000 0 11022644.328 4941647.438 -22446697.541 10 0 60894 54900.00000 0 8856049.270 6722666.578 -22939914.620 10 0 60894 55800.00000 0 6800670.133 8679132.664 -22986828.275 10 0 60894 56700.00000 0 4907668.312 10763411.170 -22586636.863 10 0 60894 57600.00000 0 3218934.794 12919835.570 -21747241.020 10 0 60894 58500.00000 0 1765541.959 15086874.704 -20485080.948 10 0 60894 59400.00000 0 566663.154 17199560.153 -18824807.610 10 0 60894 60300.00000 0 -370996.571 19192072.298 -16798794.768 10 0 60894 61200.00000 0 -1053236.644 21000377.092 -14446501.800 10 0 60894 62100.00000 0 -1497864.647 22564803.574 -11813700.037 10 0 60894 63000.00000 0 -1733690.375 23832454.732 -8951578.006 10 0 60894 63900.00000 0 -1799054.442 24759351.369 -5915743.261 10 0 60894 64800.00000 0 -1739955.065 25312219.814 -2765140.437 10 0 60894 65700.00000 0 -1607853.324 25469849.440 439093.233 10 0 60894 66600.00000 0 -1457250.520 25223963.800 3634812.593 10 0 60894 67500.00000 0 -1343140.580 24579569.754 6760066.406 10 0 60894 68400.00000 0 -1318445.404 23554770.831 9754293.122 10 0 60894 69300.00000 0 -1431541.513 22180053.099 12559487.719 10 0 60894 70200.00000 0 -1723982.278 20497073.887 15121317.462 10 0 60894 71100.00000 0 -2228511.620 18557004.050 17390165.669 10 0 60894 72000.00000 0 -2967452.818 16418492.776 19322084.080 10 0 60894 72900.00000 0 -3951540.315 14145339.304 20879636.326 10 0 60894 73800.00000 0 -5179244.066 11803967.718 22032617.080 10 0 60894 74700.00000 0 -6636615.578 9460808.878 22758633.741 10 0 60894 75600.00000 0 -8297663.319 7179697.168 23043540.050 10 0 60894 76500.00000 0 -10125243.361 5019389.036 22881713.469 10 0 60894 77400.00000 0 -12072429.878 3031305.285 22276170.931 10 0 60894 78300.00000 0 -14084310.255 1257589.987 21238520.259 10 0 60894 79200.00000 0 -16100131.843 -270434.071 19788747.365 10 0 60894 80100.00000 0 -18055712.519 -1533349.582 17954842.254 10 0 60894 81000.00000 0 -19886015.808 -2524223.672 15772269.804 10 0 60894 81900.00000 0 -21527783.982 -3248657.508 13283294.204 10 0 60894 82800.00000 0 -22922119.404 -3724304.513 10536168.902 10 0 60894 83700.00000 0 -24016905.944 -3979877.364 7584206.801 10 0 60894 84600.00000 0 -24768968.392 -4053685.630 4484748.007 10 0 60894 85500.00000 0 -25145878.201 -3991765.910 1298044.958 10 0 60895 0.00000 0 -25127328.534 -3845683.959 -1913912.922 10 0 60895 900.00000 0 -24706019.362 -3670102.415 -5088613.392 10 0 60895 1800.00000 0 -23888014.267 -3520218.376 -8164245.470 10 0 60895 2700.00000 0 -22692552.879 -3449180.409 -11080914.259 10 0 60895 3600.00000 0 -21151326.046 -3505596.084 -13781817.356 10 0 60895 4500.00000 0 -19307243.936 -3731237.078 -16214360.482 10 0 60895 5400.00000 0 -17212748.787 -4159040.539 -18331189.376 10 0 60895 6300.00000 0 -14927743.380 -4811492.615 -20091117.155 10 0 60895 7200.00000 0 -12517222.538 -5699463.637 -21459928.666 10 0 60895 8100.00000 0 -10048707.295 -6821545.061 -22411046.134 10 0 60895 9000.00000 0 -7589589.431 -8163916.843 -22926043.342 10 0 60895 9900.00000 0 -5204497.516 -9700751.279 -22994998.778 10 0 60895 10800.00000 0 -2952794.276 -11395136.657 -22616681.459 10 0 60895 11700.00000 0 -886309.221 -13200482.093 -21798566.453 10 0 60895 12600.00000 0 952599.806 -15062344.659 -20556680.475 10 0 60895 13500.00000 0 2532576.506 -16920602.231 -18915281.113 10 0 60895 14400.00000 0 3834325.261 -18711881.005 -16906376.489 10 0 60895 15300.00000 0 4851157.110 -20372136.030 -14569095.118 10 0 60895 16200.00000 0 5589001.818 -21839276.685 -11948918.594 10 0 60895 17100.00000 0 6065887.734 -23055727.373 -9096792.356 10 0 60895 18000.00000 0 6310913.304 -23970816.361 -6068132.112 10 0 60895 18900.00000 0 6362755.429 -24542893.002 -2921745.481 10 0 60895 19800.00000 0 6267779.098 -24741085.087 281309.997 10 0 60895 20700.00000 0 6077829.288 -24546623.093 3478910.164 10 0 60895 21600.00000 0 5847799.241 -23953676.491 6609065.815 10 0 60895 22500.00000 0 5633078.315 -22969667.571 9611119.364 10 0 60895 23400.00000 0 5486987.326 -21615050.081 12426913.640 10 0 60895 24300.00000 0 5458309.580 -19922562.218 15001910.630 10 0 60895 25200.00000 0 5589021.480 -17935985.106 17286239.231 10 0 60895 26100.00000 0 5912318.109 -15708458.341 19235652.464 10 0 60895 27000.00000 0 6451016.752 -13300422.246 20812376.601 10 0 60895 27900.00000 0 7216405.522 -10777271.567 21985836.663 10 0 60895 28800.00000 0 8207585.857 -8206817.130 22733245.068 10 0 60895 29700.00000 0 9411337.220 -5656659.550 23040042.656 10 0 60895 30600.00000 0 10802510.855 -3191582.706 22900183.877 10 0 60895 31500.00000 0 12344937.603 -871073.853 22316260.553 10 0 60895 32400.00000 0 13992813.571 1252927.878 21299461.411 10 0 60895 33300.00000 0 15692507.527 3137962.057 19869367.347 10 0 60895 34200.00000 0 17384716.240 4752577.030 18053585.310 10 0 60895 35100.00000 0 19006879.086 6077396.238 15887226.584 10 0 60895 36000.00000 0 20495752.050 7105676.559 13412238.248 10 0 60895 36900.00000 0 21790033.889 7843335.364 10676599.493 10 0 60895 37800.00000 0 22832934.440 8308445.180 7733397.375 10 0 60895 38700.00000 0 23574576.838 8530217.230 4639799.204 10 0 60895 39600.00000 0 23974131.740 8547516.784 1455941.285 10 0 60895 40500.00000 0 24001592.567 8406973.348 -1756244.266 10 0 60895 41400.00000 0 23639115.575 8160766.143 -4934241.251 10 0 60895 42300.00000 0 22881866.846 7864179.476 -8016175.187 10 0 60895 43200.00000 0 21738339.148 7573032.647 -10942028.192 10 0 60895 44100.00000 0 20230124.227 7341094.598 -13654818.139 10 0 60895 45000.00000 0 18391149.267 7217594.196 -16101717.902 10 0 60895 45900.00000 0 16266409.195 7244933.007 -18235091.969 10 0 60895 46800.00000 0 13910247.853 7456698.595 -20013429.475 10 0 60895 47700.00000 0 11384260.259 7876063.455 -21402155.085 10 0 60895 48600.00000 0 8754904.008 8514638.036 -22374301.831 10 0 60895 49500.00000 0 6090919.924 9371826.832 -22911033.028 10 0 60895 50400.00000 0 3460669.867 10434715.033 -23002003.499 10 0 60895 51300.00000 0 929502.700 11678490.596 -22645553.701 10 0 60895 52200.00000 0 -1442742.168 13067384.011 -21848733.591 10 0 60895 53100.00000 0 -3603990.292 14556086.086 -20627156.451 10 0 60895 54000.00000 0 -5511853.833 16091584.043 -19004686.128 10 0 60895 54900.00000 0 -7135140.682 17615338.659 -17012964.274 10 0 60895 55800.00000 0 -8454889.752 19065710.846 -14690787.259 10 0 60895 56700.00000 0 -9464891.232 20380535.777 -12083345.242 10 0 60895 57600.00000 0 -10171672.158 21499736.503 -9241338.504 10 0 60895 58500.00000 0 -10593949.962 22367867.310 -6219988.511 10 0 60895 59400.00000 0 -10761579.124 22936480.353 -3077963.215 10 0 60895 60300.00000 0 -10714036.918 23166216.320 123762.394 10 0 60895 61200.00000 0 -10498513.632 23028531.667 3323088.147 10 0 60895 62100.00000 0 -10167688.940 22506990.401 6457989.950 10 0 60895 63000.00000 0 -9777288.994 21598066.496 9467717.284 10 0 60895 63900.00000 0 -9383527.676 20311423.624 12293963.894 10 0 60895 64800.00000 0 -9040539.969 18669660.539 14881989.495 10 0 60895 65700.00000 0 -8797915.480 16707532.667 17181671.443 10 0 60895 66600.00000 0 -8698435.638 14470681.993 19148466.755 10 0 60895 67500.00000 0 -8776109.444 12013927.543 20744266.844 10 0 60895 68400.00000 0 -9054590.107 9399186.623 21938129.319 10 0 60895 69300.00000 0 -9546039.014 6693112.045 22706873.520 10 0 60895 70200.00000 0 -10250485.021 3964542.034 23035528.913 10 0 60895 71100.00000 0 -11155706.589 1281867.118 22917627.997 10 0 60895 72000.00000 0 -12237642.751 -1289578.220 22355338.023 10 0 60895 72900.00000 0 -13461317.048 -3689992.348 21359428.589 10 0 60895 73800.00000 0 -14782237.322 -5867350.098 19949074.932 10 0 60895 74700.00000 0 -16148214.349 -7779320.873 18151499.665 10 0 60895 75600.00000 0 -17501524.629 -9394782.053 16001458.603 10 0 60895 76500.00000 0 -18781327.886 -10694865.008 13540579.280 10 0 60895 77400.00000 0 -19926238.644 -11673490.092 10816563.706 10 0 60895 78300.00000 0 -20876944.188 -12337368.248 7882269.783 10 0 60895 79200.00000 0 -21578758.589 -12705469.130 4794688.447 10 0 60895 80100.00000 0 -21984004.568 -12807978.108 1613836.109 10 0 60895 81000.00000 0 -22054121.683 -12684786.331 -1598415.952 10 0 60895 81900.00000 0 -21761410.523 -12383578.037 -4779551.976 10 0 60895 82800.00000 0 -21090337.727 -11957596.631 -7867637.408 10 0 60895 83700.00000 0 -20038345.226 -11463185.044 -10802534.949 10 0 60895 84600.00000 0 -18616128.124 -10957205.636 -13527086.081 10 0 60895 85500.00000 0 -16847368.331 -10494450.179 -15988233.871 10 0 60896 0.00000 0 -14767934.479 -10125150.866 -18138064.020 10 0 60896 900.00000 0 -12424580.003 -9892698.654 -19934744.239 10 0 60896 1800.00000 0 -9873196.599 -9831666.902 -21343340.395 10 0 60896 2700.00000 0 -7176692.465 -9966223.851 -22336497.298 10 0 60896 3600.00000 0 -4402586.813 -10309001.917 -22894968.100 10 0 60896 4500.00000 0 -1620420.114 -10860471.453 -23007983.632 10 0 60896 5400.00000 0 1100911.791 -11608845.291 -22673454.854 10 0 60896 6300.00000 0 3695788.884 -12530517.850 -21898005.150 10 0 60896 7200.00000 0 6104354.406 -13591019.905 -20696832.476 10 0 60896 8100.00000 0 8274755.762 -14746448.428 -19093404.664 10 0 60896 9000.00000 0 10165046.780 -15945310.911 -17118994.334 10 0 60896 9900.00000 0 11744673.453 -17130706.199 -14812062.917 10 0 60896 10800.00000 0 12995482.944 -18242749.780 -12217506.152 10 0 60896 11700.00000 0 13912215.627 -19221141.309 -9385776.011 10 0 60896 12600.00000 0 14502461.701 -20007766.282 -6371896.498 10 0 60896 13500.00000 0 14786086.199 -20549222.396 -3234392.633 10 0 60896 14400.00000 0 14794148.406 -20799164.341 -34153.635 10 0 60896 15300.00000 0 14567362.947 -20720368.701 3166747.390 10 0 60896 16200.00000 0 14154168.576 -20286432.232 6306254.333 10 0 60896 17100.00000 0 13608487.138 -19483032.435 9323526.340 10 0 60896 18000.00000 0 12987267.724 -18308697.764 12160110.352 10 0 60896 18900.00000 0 12347919.654 -16775055.023 14761065.724 10 0 60896 19800.00000 0 11745742.334 -14906543.420 17076019.797 10 0 60896 20700.00000 0 11231459.771 -12739606.779 19060134.735 10 0 60896 21600.00000 0 10848962.967 -10321396.811 20674967.860 10 0 60896 22500.00000 0 10633354.524 -7708040.399 21889209.774 10 0 60896 23400.00000 0 10609377.175 -4962541.648 22679286.805 10 0 60896 24300.00000 0 10790291.985 -2152404.302 23029816.791 10 0 60896 25200.00000 0 11177253.454 652928.485 22933909.731 10 0 60896 26100.00000 0 11759208.183 3384712.448 22393307.501 10 0 60896 27000.00000 0 12513322.271 5977510.742 21418359.528 10 0 60896 27900.00000 0 13405920.647 8371665.867 20027834.147 10 0 60896 28800.00000 0 14393900.316 10515533.360 18248568.209 10 0 60896 29700.00000 0 15426559.557 12367385.167 16114960.461 10 0 60896 30600.00000 0 16447767.499 13896903.865 13668317.128 10 0 60896 31500.00000 0 17398383.798 15086205.495 10956061.118 10 0 60896 32400.00000 0 18218827.112 15930348.206 8030819.099 10 0 60896 33300.00000 0 18851684.185 16437305.242 4949403.392 10 0 60896 34200.00000 0 19244249.051 16627403.279 1771708.162 10 0 60896 35100.00000 0 19350884.197 16532249.747 -1440458.592 10 0 60896 36000.00000 0 19135102.670 16193194.613 -4624584.002 10 0 60896 36900.00000 0 18571281.572 15659392.015 -7718675.854 10 0 60896 37800.00000 0 17645932.873 14985544.460 -10662479.717 10 0 60896 38700.00000 0 16358476.248 14229425.947 -13398662.808 10 0 60896 39600.00000 0 14721479.834 13449289.942 -15873940.307 10 0 60896 40500.00000 0 12760357.555 12701273.013 -18040121.201 10 0 60896 41400.00000 0 10512534.777 12036905.013 -19855052.522 10 0 60896 42300.00000 0 8026116.732 11500831.966 -21283443.124 10 0 60896 43200.00000 0 5358115.163 11128848.455 -22297550.815 10 0 60896 44100.00000 0 2572307.178 10946322.919 -22877719.670 10 0 60896 45000.00000 0 -263184.255 10967082.248 -23012757.423 10 0 60896 45900.00000 0 -3078487.358 11192802.418 -22700146.218 10 0 60896 46800.00000 0 -5804648.113 11612930.300 -21946083.247 10 0 60896 47700.00000 0 -8376255.648 12205139.256 -20765351.155 10 0 60896 48600.00000 0 -10733917.795 12936298.548 -19181021.373 10 0 60896 49500.00000 0 -12826484.656 13763914.982 -17223996.677 10 0 60896 50400.00000 0 -14612928.727 14637985.353 -14932402.340 10 0 60896 51300.00000 0 -16063804.671 15503181.038 -12350838.089 10 0 60896 52200.00000 0 -17162229.485 16301272.221 -9529505.726 10 0 60896 53100.00000 0 -17904343.979 16973689.283 -6523229.663 10 0 60896 54000.00000 0 -18299238.129 17464113.198 -3390389.666 10 0 60896 54900.00000 0 -18368345.359 17720985.728 -191786.742 10 0 60896 55800.00000 0 -18144332.843 17699833.653 3010535.636 10 0 60896 56700.00000 0 -17669536.013 17365309.201 6154492.027 10 0 60896 57600.00000 0 -16994004.356 16692861.065 9179153.963 10 0 60896 58500.00000 0 -16173241.468 15669965.713 12025924.363 10 0 60896 59400.00000 0 -15265734.881 14296867.275 14639665.025 10 0 60896 60300.00000 0 -14330379.573 12586794.761 16969756.048 10 0 60896 61200.00000 0 -13423903.175 10565646.936 18971067.423 10 0 60896 62100.00000 0 -12598400.472 8271157.258 20604824.923 10 0 60896 63000.00000 0 -11899080.061 5751572.564 21839354.477 10 0 60896 63900.00000 0 -11362316.965 3063899.115 22650691.463 10 0 60896 64800.00000 0 -11014092.321 271787.273 23023043.815 10 0 60896 65700.00000 0 -10868885.184 -2556859.160 22949100.373 10 0 60896 66600.00000 0 -10929062.878 -5352451.537 22430178.525 10 0 60896 67500.00000 0 -11184795.788 -8046358.088 21476207.926 10 0 60896 68400.00000 0 -11614500.814 -10573510.728 20105549.872 10 0 60896 69300.00000 0 -12185795.832 -12874869.925 18344654.770 10 0 60896 70200.00000 0 -12856926.145 -14899646.091 16227563.063 10 0 60896 71100.00000 0 -13578604.048 -16607185.550 13795257.908 10 0 60896 72000.00000 0 -14296185.003 -17968442.592 11094880.866 10 0 60896 72900.00000 0 -14952089.347 -18966976.004 8178824.709 10 0 60896 73800.00000 0 -15488367.586 -19599428.092 5103720.153 10 0 60896 74700.00000 0 -15849300.667 -19875465.760 1929335.850 10 0 60896 75600.00000 0 -15983924.588 -19817185.890 -1282586.930 10 0 60896 76500.00000 0 -15848371.400 -19458010.025 -4469541.795 10 0 60896 77400.00000 0 -15407926.077 -18841115.151 -7569482.513 10 0 60896 78300.00000 0 -14638710.571 -18017467.330 -10522041.173 10 0 60896 79200.00000 0 -13528922.088 -17043542.016 -13269714.294 10 0 60896 80100.00000 0 -12079571.628 -15978828.331 -15758992.573 10 0 60896 81000.00000 0 -10304690.138 -14883223.819 -17941411.241 10 0 60896 81900.00000 0 -8230992.363 -13814430.745 -19774499.804 10 0 60896 82800.00000 0 -5897011.599 -12825464.751 -21222612.171 10 0 60896 83700.00000 0 -3351740.992 -11962381.599 -22257620.863 10 0 60896 84600.00000 0 -652837.866 -11262318.151 -22859461.974 10 0 60896 85500.00000 0 2135534.084 -10751930.050 -23016520.619 10 0 60897 0.00000 0 4945134.583 -10446291.510 -22725850.051 10 0 60897 900.00000 0 7706248.955 -10348302.683 -21993220.540 10 0 60897 1800.00000 0 10350350.779 -10448628.920 -20832998.263 10 0 60897 2700.00000 0 12812719.604 -10726172.892 -19267856.650 10 0 60897 3600.00000 0 15034901.655 -11149058.946 -17328326.630 10 0 60897 4500.00000 0 16966913.410 -11676086.962 -15052194.938 10 0 60897 5400.00000 0 18569097.048 -12258593.447 -12483762.548 10 0 60897 6300.00000 0 19813551.849 -12842640.590 -9672977.994 10 0 60897 7200.00000 0 20685083.252 -13371440.288 -6674462.729 10 0 60897 8100.00000 0 21181631.557 -13787910.398 -3546447.696 10 0 60897 9000.00000 0 21314164.090 -14037255.114 -349641.997 10 0 60897 9900.00000 0 21106036.927 -14069460.391 2853944.215 10 0 60897 10800.00000 0 20591854.534 -13841599.214 6002199.681 10 0 60897 11700.00000 0 19815876.505 -13319849.587 9034111.603 10 0 60897 12600.00000 0 18830039.233 -12481140.300 11890941.774 10 0 60897 13500.00000 0 17691676.203 -11314355.249 14517356.892 10 0 60897 14400.00000 0 16461032.755 -9821045.433 16862491.803 10 0 60897 15300.00000 0 15198679.458 -8015618.340 18880925.841 10 0 60897 16200.00000 0 13962932.096 -5924996.015 20533554.291 10 0 60897 17100.00000 0 12807385.634 -3587754.992 21788339.046 10 0 60897 18000.00000 0 11778664.644 -1052782.516 22620924.774 10 0 60897 18900.00000 0 10914483.523 1622496.669 23015109.390 10 0 60897 19800.00000 0 10242096.978 4374251.179 22963160.120 10 0 60897 20700.00000 0 9777205.178 7134644.882 22465969.097 10 0 60897 21600.00000 0 9523359.230 9834412.050 21533045.150 10 0 60897 22500.00000 0 9471892.054 12405500.600 20182341.219 10 0 60897 23400.00000 0 9602377.998 14783675.025 18439919.706 10 0 60897 24300.00000 0 9883602.623 16910971.893 16339460.971 10 0 60897 25200.00000 0 10275002.643 18737906.325 13921623.116 10 0 60897 26100.00000 0 10728516.213 20225337.674 11233264.182 10 0 60897 27000.00000 0 11190766.141 21345916.344 8326540.695 10 0 60897 27900.00000 0 11605484.136 22085050.817 5257899.258 10 0 60897 28800.00000 0 11916073.552 22441353.829 2086980.389 10 0 60897 29700.00000 0 12068201.627 22426548.454 -1124544.059 10 0 60897 30600.00000 0 12012310.499 22064837.682 -4314176.844 10 0 60897 31500.00000 0 11705939.339 21391763.950 -7419820.311 10 0 60897 32400.00000 0 11115757.620 20452606.868 -10380995.495 10 0 60897 33300.00000 0 10219221.734 19300387.234 -13140030.439 10 0 60897 34200.00000 0 9005783.128 17993562.306 -15643193.331 10 0 60897 35100.00000 0 7477595.302 16593510.469 -17841747.366 10 0 60897 36000.00000 0 5649688.379 15161912.348 -19692906.016 10 0 60897 36900.00000 0 3549602.751 13758139.619 -21160669.520 10 0 60897 37800.00000 0 1216496.276 12436762.200 -22216526.207 10 0 60897 38700.00000 0 -1300238.172 11245279.040 -22840005.086 10 0 60897 39600.00000 0 -3942787.341 10222168.001 -23019069.357 10 0 60897 40500.00000 0 -6647088.859 9395336.346 -22750343.720 10 0 60897 41400.00000 0 -9345268.726 8781036.164 -22039171.758 10 0 60897 42300.00000 0 -11968243.603 8383289.218 -20899502.930 10 0 60897 43200.00000 0 -14448379.765 8193844.011 -19353612.028 10 0 60897 44100.00000 0 -16722098.453 8192665.417 -17431657.101 10 0 60897 45000.00000 0 -18732319.586 8348934.783 -15171084.942 10 0 60897 45900.00000 0 -20430642.913 8622516.956 -12615896.071 10 0 60897 46800.00000 0 -21779176.616 8965831.158 -9815783.818 10 0 60897 47700.00000 0 -22751938.166 9326045.749 -6825164.553 10 0 60897 48600.00000 0 -23335770.408 9647503.452 -3702118.151 10 0 60897 49500.00000 0 -23530735.869 9874274.107 -507259.473 10 0 60897 50400.00000 0 -23349974.182 9952726.718 2697437.066 10 0 60897 51300.00000 0 -22819030.177 9834012.138 5849836.873 10 0 60897 52200.00000 0 -21974681.932 9476351.518 8888845.369 10 0 60897 53100.00000 0 -20863318.980 8847034.092 11755585.819 10 0 60897 54000.00000 0 -19538939.339 7924040.111 14394532.425 10 0 60897 54900.00000 0 -18060849.578 6697220.526 16754577.357 10 0 60897 55800.00000 0 -16491164.255 5168983.501 18790011.773 10 0 60897 56700.00000 0 -14892208.973 3354458.364 20461402.790 10 0 60897 57600.00000 0 -13323934.992 1281129.100 21736350.358 10 0 60897 58500.00000 0 -11841452.575 -1012048.585 22590110.260 10 0 60897 59400.00000 0 -10492785.153 -3476011.499 23006071.893 10 0 60897 60300.00000 0 -9316937.151 -6053379.593 22976082.026 10 0 60897 61200.00000 0 -8342355.404 -8680600.485 22500608.322 10 0 60897 62100.00000 0 -7585847.863 -11290360.815 21588739.176 10 0 60897 63000.00000 0 -7052004.537 -13814166.078 20258019.156 10 0 60897 63900.00000 0 -6733144.940 -16184983.300 18534122.218 10 0 60897 64800.00000 0 -6609794.506 -18339837.861 16450367.761 10 0 60897 65700.00000 0 -6651670.434 -20222257.100 14047087.533 10 0 60897 66600.00000 0 -6819136.020 -21784459.115 11370854.341 10 0 60897 67500.00000 0 -7065062.660 -22989195.188 8473586.384 10 0 60897 68400.00000 0 -7337021.198 -23811168.328 5411543.747 10 0 60897 69300.00000 0 -7579709.960 -24237967.732 2244236.127 10 0 60897 70200.00000 0 -7737516.317 -24270479.220 -966736.956 10 0 60897 71100.00000 0 -7757102.433 -23922753.686 -4158890.522 10 0 60897 72000.00000 0 -7589904.476 -23221338.612 -7270078.758 10 0 60897 72900.00000 0 -7194437.855 -22204100.619 -10239715.026 10 0 60897 73800.00000 0 -6538309.150 -20918588.807 -13009962.309 10 0 60897 74700.00000 0 -5599847.810 -19420008.314 -15526869.665 10 0 60897 75600.00000 0 -4369286.934 -17768890.175 -17741431.501 10 0 60897 76500.00000 0 -2849441.683 -16028556.418 -19610548.231 10 0 60897 77400.00000 0 -1055855.462 -14262487.928 -21097869.055 10 0 60897 78300.00000 0 983593.393 -12531706.450 -22174500.269 10 0 60897 79200.00000 0 3229608.685 -10892281.110 -22819565.461 10 0 60897 80100.00000 0 5632879.290 -9393064.267 -23020607.010 10 0 60897 81000.00000 0 8135909.607 -8073751.326 -22773821.680 10 0 60897 81900.00000 0 10675201.288 -6963345.122 -22084126.372 10 0 60897 82800.00000 0 13183695.324 -6079088.171 -20965053.396 10 0 60897 83700.00000 0 15593372.824 -5425906.100 -19438478.020 10 0 60897 84600.00000 0 17837906.304 -4996383.936 -17534184.073 10 0 60897 85500.00000 0 19855251.296 -4771274.494 -15289276.619 99